TA2DMX-13 Weather Reports


time (UTC)temp
C
wind
direction
speed
KPH
gust
KPH
rain 1hr
cm
rain 24hr
cm
rain mn
cm
humidity
%
barometer
mb
20260508082704 35 270 0.0 0.0 0.00 0.00 0.00 18 1011.5
20260508080007 27 315 0.0 0.0 0.00 0.00 0.00 28 1011.9
20260508074310 27 270 0.0 0.0 0.00 0.00 0.00 26 1011.9
20260508072709 31 270 0.0 0.0 0.00 0.00 0.00 22 1011.8
20260508070704 31 270 0.0 0.0 0.00 0.00 0.00 21 1011.7
20260508064042 35 315 0.0 0.0 0.00 0.00 0.00 19 1011.5
20260508062440 33 270 0.0 0.0 0.00 0.00 0.00 22 1011.7
20260508060837 32 270 0.0 0.0 0.00 0.00 0.00 22 1011.7
20260508055245 26 270 0.0 0.0 0.00 0.00 0.00 33 1011.9
20260508053008 28 225 0.0 0.0 0.00 0.00 0.00 30 1011.8
20260508051019 21 270 0.0 0.0 0.00 0.00 0.00 47 1012.0
20260508045411 20 270 0.0 0.0 0.00 0.00 0.00 50 1012.1
20260508043808 19 270 0.0 0.0 0.00 0.00 0.00 51 1012.1
20260508042204 18 315 0.0 0.0 0.00 0.00 0.00 54 1012.1
20260508040031 18 270 0.0 0.0 0.00 0.00 0.00 57 1011.8
20260508034211 17 270 0.0 0.0 0.00 0.00 0.00 58 1011.9
20260508032309 17 270 0.0 0.0 0.00 0.00 0.00 58 1012.0
20260508030705 17 225 0.0 0.0 0.00 0.00 0.00 60 1011.8
20260508023009 16 0 0.0 0.0 0.00 0.00 0.00 58 1011.7
20260508020014 16 0 0.0 0.0 0.00 0.00 0.00 58 1011.7
20260508013006 16 270 0.0 0.0 0.00 0.00 0.00 62 1011.7
20260508011408 16 270 0.0 0.0 0.00 0.00 0.00 62 1011.8
20260508005804 16 270 0.0 0.0 0.00 0.00 0.00 62 1011.8
20260508003008 16 270 0.0 0.0 0.00 0.00 0.00 63 1011.9
20260508000513 16 0 0.0 0.0 0.00 0.00 0.00 63 1011.9
20260507234910 16 270 0.0 0.0 0.00 0.00 0.00 62 1012.0
20260507233308 17 315 0.0 0.0 0.00 0.00 0.00 61 1012.1
20260507231704 17 270 0.0 0.0 0.00 0.00 0.00 61 1012.1
20260507230023 17 225 0.0 0.0 0.00 0.00 0.00 60 1012.2
20260507224033 17 0 0.0 0.0 0.00 0.00 0.00 57 1012.2
20260507220927 17 270 0.0 0.0 0.00 0.00 0.00 53 1012.2
20260507215324 17 0 0.0 0.0 0.00 0.00 0.00 54 1012.2
20260507213722 17 225 0.0 0.0 0.00 0.00 0.00 52 1012.3
20260507212119 18 270 0.0 0.0 0.00 0.00 0.00 50 1012.3
20260507210516 18 270 0.0 0.0 0.00 0.00 0.00 47 1012.2
20260507204913 18 225 0.0 0.0 0.00 0.00 0.00 46 1012.1
20260507201806 18 225 0.0 0.0 0.00 0.00 0.00 44 1012.0
20260507200204 18 270 0.0 0.0 0.00 0.00 0.00 44 1011.8
20260507194520 18 270 0.0 0.0 0.00 0.00 0.00 42 1011.8
20260507193018 19 270 0.0 0.0 0.00 0.00 0.00 42 1011.8
20260507191515 19 270 0.0 0.0 0.00 0.00 0.00 41 1011.7
20260507190012 19 270 0.0 0.0 0.00 0.00 0.00 41 1011.5
20260507184509 20 225 0.0 0.0 0.00 0.00 0.00 40 1011.4
20260507183007 20 225 0.0 0.0 0.00 0.00 0.00 40 1011.2
20260507181504 20 315 0.0 0.0 0.00 0.00 0.00 38 1011.1
20260507175940 20 270 0.0 0.0 0.00 0.00 0.00 37 1011.0
20260507174407 20 270 0.0 0.0 0.00 0.00 0.00 36 1010.9
20260507171905 21 315 0.0 0.0 0.00 0.00 0.00 35 1010.7
20260507170300 21 270 0.0 0.0 0.00 0.00 0.00 33 1010.6
20260507163911 22 270 0.0 0.0 0.00 0.00 0.00 31 1010.5
20260507162308 22 270 0.0 0.0 0.00 0.00 0.00 30 1010.4
20260507160704 22 270 0.0 0.0 0.00 0.00 0.00 30 1010.5
20260507154516 23 270 0.0 0.0 0.00 0.00 0.00 29 1010.6
20260507151504 23 225 0.0 0.0 0.00 0.00 0.00 27 1010.8
20260507145928 24 225 0.0 0.0 0.00 0.00 0.00 26 1010.8
20260507144324 24 270 0.0 0.0 0.00 0.00 0.00 27 1011.0
20260507142721 25 270 0.0 0.0 0.00 0.00 0.00 25 1011.0
20260507141119 25 315 0.0 0.0 0.00 0.00 0.00 25 1011.1
20260507135515 25 270 0.0 0.0 0.00 0.00 0.00 25 1011.1
20260507133912 25 0 0.0 0.0 0.00 0.00 0.00 25 1011.0
20260507132308 25 225 0.0 0.0 0.00 0.00 0.00 25 1011.1
20260507124204 25 315 0.0 0.0 0.00 0.00 0.00 26 1011.3
20260507113024 25 315 0.0 0.0 0.00 0.00 0.00 27 1011.8
20260507110019 30 270 0.0 0.0 0.00 0.00 0.00 20 1011.5
20260507103006 38 270 0.0 0.0 0.00 0.00 0.00 13 1011.3
20260507101204 37 0 0.0 0.0 0.00 0.00 0.00 13 1011.4
20260507092204 37 315 0.0 0.0 0.00 0.00 0.00 13 1011.7
20260507085013 39 270 0.0 0.0 0.00 0.00 0.00 11 1011.8
20260507083411 38 270 0.0 0.0 0.00 0.00 0.00 13 1011.8